CPA785 VHHH-WADD

Flight info

Callsign CPA785
Flight time N/A
Altitude 35000
Route DALOL V652 UNTUL/N0498F340 V652 SABNO/N0495F350 A583 AKOTA/N0493F360 M754 VINIK M522 ELANG/N0492F370 M522 DOBMA
Aircraft B77W/H-SDE1E2E3FGHIJ2J3J4J5M1RWXY/LB1D1

Departure

Time 2026-05-07 06:16
Airport Hong Kong International Airport (VHHH)

Arrival

Time N/A
Airport Denpasar I Gusti Ngurah Rai International Airport (WADD)
Time Latitude Longitude Altitude Speed Heading
2026-05-07 05:43 22.31352 113.93125 42 ft 0 kts 340°
2026-05-07 06:06 22.31347 113.93127 42 ft 4 kts 340°
2026-05-07 06:06 22.31322 113.93137 56 ft 4 kts 340°
2026-05-07 06:07 22.31299 113.93145 40 ft 2 kts 341°
2026-05-07 06:07 22.31278 113.93155 39 ft 4 kts 315°
2026-05-07 06:07 22.31268 113.93170 42 ft 4 kts 271°
2026-05-07 06:07 22.31273 113.93193 39 ft 4 kts 247°
2026-05-07 06:08 22.31281 113.93215 37 ft 0 kts 251°
2026-05-07 06:10 22.31270 113.93178 42 ft 10 kts 251°
2026-05-07 06:10 22.31236 113.93075 42 ft 19 kts 251°
2026-05-07 06:10 22.31190 113.92930 42 ft 17 kts 250°
2026-05-07 06:10 22.31101 113.92851 42 ft 17 kts 206°
2026-05-07 06:11 22.30993 113.92794 42 ft 18 kts 206°
2026-05-07 06:11 22.30862 113.92724 42 ft 21 kts 214°
2026-05-07 06:11 22.30800 113.92581 42 ft 21 kts 251°
2026-05-07 06:11 22.30751 113.92430 42 ft 21 kts 251°
2026-05-07 06:12 22.30700 113.92275 42 ft 25 kts 251°
2026-05-07 06:12 22.30635 113.92071 42 ft 30 kts 251°
2026-05-07 06:12 22.30565 113.91861 42 ft 30 kts 251°
2026-05-07 06:12 22.30499 113.91650 42 ft 30 kts 250°
2026-05-07 06:13 22.30430 113.91438 41 ft 30 kts 251°
2026-05-07 06:13 22.30362 113.91227 42 ft 30 kts 251°
2026-05-07 06:13 22.30294 113.91015 42 ft 30 kts 250°
2026-05-07 06:13 22.30225 113.90804 42 ft 30 kts 251°
2026-05-07 06:14 22.30157 113.90593 41 ft 30 kts 251°
2026-05-07 06:14 22.30089 113.90381 41 ft 30 kts 251°
2026-05-07 06:14 22.30020 113.90170 41 ft 30 kts 251°
2026-05-07 06:14 22.29953 113.89959 41 ft 30 kts 251°
2026-05-07 06:15 22.29890 113.89768 42 ft 22 kts 244°
2026-05-07 06:15 22.29766 113.89759 42 ft 20 kts 160°
2026-05-07 06:15 22.29653 113.89802 42 ft 11 kts 156°
2026-05-07 06:15 22.29646 113.89879 40 ft 12 kts 69°
2026-05-07 06:16 22.29706 113.90062 41 ft 51 kts 71°
2026-05-07 06:16 22.29918 113.90715 42 ft 131 kts 71°
2026-05-07 06:16 22.30295 113.91884 67 ft 191 kts 70°
2026-05-07 06:16 22.30728 113.93229 852 ft 189 kts 71°
2026-05-07 06:17 22.31175 113.94617 1483 ft 203 kts 74°
2026-05-07 06:17 22.31661 113.96139 1760 ft 231 kts 72°
2026-05-07 06:17 22.32213 113.97854 2131 ft 249 kts 72°
2026-05-07 06:17 22.32794 113.99658 2703 ft 259 kts 71°
2026-05-07 06:18 22.33396 114.01529 3359 ft 268 kts 71°
2026-05-07 06:18 22.33880 114.03485 3953 ft 274 kts 87°
2026-05-07 06:18 22.33572 114.05515 4699 ft 276 kts 114°
2026-05-07 06:18 22.32496 114.07236 5350 ft 281 kts 139°
2026-05-07 06:19 22.30863 114.08362 6125 ft 279 kts 161°
2026-05-07 06:19 22.28978 114.08774 6840 ft 277 kts 180°
2026-05-07 06:19 22.27045 114.08730 7438 ft 281 kts 183°
2026-05-07 06:19 22.25072 114.08697 8115 ft 284 kts 183°
2026-05-07 06:20 22.23092 114.08676 8870 ft 285 kts 183°
2026-05-07 06:20 22.21119 114.08657 9600 ft 287 kts 183°
2026-05-07 06:20 22.19108 114.08637 10239 ft 291 kts 183°
2026-05-07 06:20 22.17060 114.08962 10481 ft 314 kts 160°
2026-05-07 06:21 22.15224 114.10390 10642 ft 343 kts 131°
2026-05-07 06:21 22.13978 114.12669 10798 ft 364 kts 117°
2026-05-07 06:21 22.12846 114.15206 10998 ft 386 kts 117°
2026-05-07 06:21 22.11659 114.17854 11505 ft 397 kts 117°
2026-05-07 06:22 22.10415 114.20540 12169 ft 404 kts 118°
2026-05-07 06:22 22.07826 114.25990 13744 ft 413 kts 119°
2026-05-07 06:22 22.06421 114.28711 14404 ft 417 kts 122°
2026-05-07 06:23 22.04923 114.31362 15060 ft 422 kts 123°
2026-05-07 06:23 22.03335 114.34090 15754 ft 426 kts 124°
2026-05-07 06:23 22.01768 114.36774 16419 ft 430 kts 124°
2026-05-07 06:23 22.00173 114.39522 17068 ft 435 kts 123°
2026-05-07 06:24 21.98571 114.42304 17706 ft 440 kts 123°
2026-05-07 06:24 21.96954 114.45130 18326 ft 444 kts 123°
2026-05-07 06:24 21.95331 114.47975 18867 ft 449 kts 123°
2026-05-07 06:24 21.93689 114.50855 19416 ft 452 kts 123°
2026-05-07 06:25 21.92034 114.53760 19971 ft 456 kts 123°
2026-05-07 06:25 21.90368 114.56682 20505 ft 460 kts 123°
2026-05-07 06:25 21.88690 114.59624 21039 ft 464 kts 123°
2026-05-07 06:25 21.86994 114.62595 21558 ft 467 kts 123°
2026-05-07 06:26 21.85284 114.65587 22067 ft 471 kts 123°
2026-05-07 06:26 21.83559 114.68604 22561 ft 475 kts 122°
2026-05-07 06:26 21.82409 114.70615 22895 ft 478 kts 122°
2026-05-07 06:26 21.80066 114.74710 23542 ft 482 kts 122°
2026-05-07 06:27 21.78322 114.77754 23936 ft 485 kts 122°
2026-05-07 06:27 21.76547 114.80853 24343 ft 488 kts 122°
2026-05-07 06:27 21.74759 114.83961 24759 ft 490 kts 123°
2026-05-07 06:27 21.72809 114.86974 25153 ft 492 kts 128°
2026-05-07 06:28 21.71391 114.88953 25425 ft 493 kts 129°
2026-05-07 06:28 21.68579 114.92817 25918 ft 497 kts 129°
2026-05-07 06:28 21.67170 114.94767 26165 ft 499 kts 129°
2026-05-07 06:28 21.65046 114.97734 26539 ft 502 kts 128°
2026-05-07 06:29 21.62915 115.00732 26917 ft 505 kts 128°
2026-05-07 06:29 21.60778 115.03744 27277 ft 508 kts 128°
2026-05-07 06:29 21.58624 115.06778 27633 ft 510 kts 128°
2026-05-07 06:29 21.56460 115.09816 27985 ft 513 kts 129°
2026-05-07 06:30 21.54127 115.12733 28321 ft 514 kts 135°
2026-05-07 06:30 21.51578 115.15362 28644 ft 515 kts 140°
2026-05-07 06:30 21.48781 115.17788 28952 ft 516 kts 146°
2026-05-07 06:30 21.45815 115.19967 29257 ft 517 kts 148°
2026-05-07 06:31 21.42813 115.22118 29536 ft 520 kts 148°
2026-05-07 06:31 21.39792 115.24287 29824 ft 522 kts 148°
2026-05-07 06:31 21.36786 115.26467 30168 ft 522 kts 147°
2026-05-07 06:31 21.33788 115.28663 30504 ft 521 kts 147°
2026-05-07 06:32 21.30799 115.30863 30833 ft 521 kts 147°
2026-05-07 06:32 21.27803 115.33068 31134 ft 522 kts 147°
2026-05-07 06:32 21.24849 115.35237 31446 ft 522 kts 147°
2026-05-07 06:32 21.21847 115.37433 31755 ft 522 kts 147°
2026-05-07 06:33 21.18841 115.39625 32077 ft 522 kts 147°
2026-05-07 06:33 21.15830 115.41818 32415 ft 522 kts 147°
2026-05-07 06:33 21.12827 115.44004 32738 ft 522 kts 147°
2026-05-07 06:33 21.09818 115.46194 33051 ft 522 kts 147°
2026-05-07 06:34 21.06809 115.48385 33361 ft 523 kts 147°
2026-05-07 06:34 21.03797 115.50577 33666 ft 523 kts 147°
2026-05-07 06:34 21.00791 115.52765 33979 ft 523 kts 147°
2026-05-07 06:34 20.97781 115.54954 34235 ft 523 kts 147°
2026-05-07 06:35 20.94776 115.57139 34534 ft 522 kts 147°
2026-05-07 06:35 20.91769 115.59324 34829 ft 522 kts 147°
2026-05-07 06:35 20.85724 115.63713 34918 ft 526 kts 147°
2026-05-07 06:36 20.79694 115.68088 34911 ft 521 kts 147°
2026-05-07 06:36 20.73710 115.72290 34912 ft 516 kts 154°
2026-05-07 06:37 20.66998 115.74790 34927 ft 510 kts 171°
2026-05-07 06:37 20.59968 115.75447 34929 ft 507 kts 180°
2026-05-07 06:38 20.52887 115.75762 34924 ft 511 kts 180°
2026-05-07 06:38 20.45764 115.76125 34921 ft 514 kts 179°
2026-05-07 06:39 20.38609 115.76530 34919 ft 515 kts 179°
2026-05-07 06:39 20.31437 115.76947 34915 ft 516 kts 179°
2026-05-07 06:40 20.24311 115.77359 34914 ft 515 kts 179°
2026-05-07 06:40 20.17158 115.77769 34909 ft 514 kts 179°
2026-05-07 06:41 20.10018 115.78176 34909 ft 513 kts 179°
2026-05-07 06:41 20.02892 115.78583 34911 ft 512 kts 179°
2026-05-07 06:42 19.95779 115.78988 34911 ft 511 kts 179°
2026-05-07 06:42 19.88672 115.79393 34907 ft 511 kts 179°
2026-05-07 06:43 19.81571 115.79797 34908 ft 511 kts 179°
2026-05-07 06:43 19.74507 115.80199 34902 ft 511 kts 179°
2026-05-07 06:44 19.67398 115.80603 34906 ft 512 kts 179°
2026-05-07 06:44 19.60275 115.81007 34904 ft 512 kts 179°
2026-05-07 06:45 19.53149 115.81411 34902 ft 512 kts 179°
2026-05-07 06:45 19.46022 115.81815 34902 ft 513 kts 179°
2026-05-07 06:46 19.38889 115.82219 34900 ft 513 kts 179°
2026-05-07 06:46 19.31802 115.82620 34902 ft 513 kts 179°
2026-05-07 06:47 19.24663 115.83024 34899 ft 513 kts 178°
2026-05-07 06:47 19.17513 115.83428 34900 ft 513 kts 178°
2026-05-07 06:48 19.10368 115.83831 34899 ft 513 kts 178°
2026-05-07 06:48 19.03282 115.84267 34891 ft 514 kts 175°
2026-05-07 06:49 18.96299 115.85954 34902 ft 516 kts 161°
2026-05-07 06:49 18.89770 115.89113 34903 ft 516 kts 152°
2026-05-07 06:50 18.83427 115.92681 34891 ft 517 kts 152°
2026-05-07 06:50 18.77077 115.96227 34893 ft 517 kts 153°
2026-05-07 06:51 18.70693 115.99734 34892 ft 517 kts 153°
2026-05-07 06:51 18.64303 116.03220 34888 ft 517 kts 153°
2026-05-07 06:52 18.57952 116.06683 34886 ft 517 kts 153°
2026-05-07 06:52 18.51566 116.10165 34889 ft 516 kts 153°
2026-05-07 06:53 18.45188 116.13642 34884 ft 516 kts 153°
2026-05-07 06:53 18.38815 116.17113 34888 ft 515 kts 153°
2026-05-07 06:54 18.32438 116.20583 34887 ft 515 kts 153°
2026-05-07 06:54 18.26076 116.24042 34883 ft 515 kts 153°
2026-05-07 06:55 18.19753 116.27477 34885 ft 515 kts 153°
2026-05-07 06:55 18.13382 116.30935 34885 ft 514 kts 153°
2026-05-07 06:56 18.07023 116.34383 34885 ft 514 kts 153°
2026-05-07 06:56 18.00683 116.37819 34885 ft 514 kts 153°
2026-05-07 06:57 17.94322 116.41263 34887 ft 514 kts 153°
2026-05-07 06:57 17.87957 116.44708 34882 ft 514 kts 153°
2026-05-07 06:58 17.81590 116.48151 34880 ft 514 kts 153°
2026-05-07 06:58 17.75228 116.51587 34879 ft 514 kts 153°
2026-05-07 06:59 17.68849 116.55027 34878 ft 514 kts 153°
2026-05-07 06:59 17.62490 116.58455 34876 ft 514 kts 153°
2026-05-07 07:00 17.56161 116.61865 34878 ft 514 kts 153°
2026-05-07 07:00 17.49807 116.65286 34879 ft 514 kts 153°
2026-05-07 07:01 17.43443 116.68710 34875 ft 513 kts 153°
2026-05-07 07:01 17.37094 116.72122 34869 ft 513 kts 153°
2026-05-07 07:02 17.30743 116.75534 34876 ft 513 kts 153°
2026-05-07 07:02 17.24395 116.78941 34877 ft 513 kts 153°
2026-05-07 07:03 17.18049 116.82344 34868 ft 512 kts 153°
2026-05-07 07:03 17.11744 116.85723 34872 ft 512 kts 153°
2026-05-07 07:04 17.05411 116.89114 34869 ft 511 kts 153°
2026-05-07 07:04 16.99076 116.92503 34868 ft 511 kts 153°
2026-05-07 07:05 16.92749 116.95886 34869 ft 510 kts 153°
2026-05-07 07:05 16.86427 116.99264 34868 ft 510 kts 153°
2026-05-07 07:06 16.80112 117.02636 34866 ft 510 kts 153°
2026-05-07 07:06 16.73789 117.06009 34865 ft 510 kts 153°
2026-05-07 07:07 16.67478 117.09373 34865 ft 509 kts 153°
2026-05-07 07:07 16.61161 117.12738 34865 ft 509 kts 153°
2026-05-07 07:08 16.54845 117.16101 34862 ft 509 kts 153°
2026-05-07 07:08 16.48467 117.19159 34856 ft 507 kts 164°
2026-05-07 07:09 16.41498 117.20169 34866 ft 506 kts 182°
2026-05-07 07:09 16.34527 117.19352 34858 ft 504 kts 189°
2026-05-07 07:10 16.27564 117.18344 34858 ft 506 kts 188°
2026-05-07 07:10 16.20607 117.17390 34858 ft 508 kts 188°
2026-05-07 07:11 16.13592 117.16477 34855 ft 508 kts 188°
2026-05-07 07:11 16.06564 117.15576 34854 ft 509 kts 188°
2026-05-07 07:12 15.99539 117.14675 34856 ft 508 kts 188°
2026-05-07 07:12 15.92513 117.13772 34855 ft 508 kts 188°
2026-05-07 07:13 15.85494 117.12869 34854 ft 507 kts 188°
2026-05-07 07:13 15.78535 117.11973 34855 ft 506 kts 188°
2026-05-07 07:14 15.71543 117.11075 34851 ft 506 kts 188°
2026-05-07 07:14 15.64563 117.10179 34847 ft 505 kts 188°
2026-05-07 07:15 15.57586 117.09284 34849 ft 505 kts 188°
2026-05-07 07:15 15.50600 117.08388 34848 ft 505 kts 188°
2026-05-07 07:16 15.43625 117.07494 34850 ft 505 kts 188°
2026-05-07 07:16 15.37824 117.06752 34850 ft 505 kts 188°
2026-05-07 07:17 15.29715 117.05714 34849 ft 505 kts 188°
2026-05-07 07:17 15.23871 117.04967 34846 ft 505 kts 188°
2026-05-07 07:18 15.16894 117.04075 34846 ft 505 kts 188°
2026-05-07 07:18 15.09915 117.03184 34848 ft 505 kts 188°
2026-05-07 07:19 15.02977 117.02298 34846 ft 505 kts 187°
2026-05-07 07:19 14.95999 117.01408 34843 ft 505 kts 187°
2026-05-07 07:20 14.89018 117.00518 34840 ft 505 kts 187°
2026-05-07 07:20 14.82037 116.99629 34841 ft 505 kts 187°
2026-05-07 07:21 14.75045 116.98739 34841 ft 506 kts 187°
2026-05-07 07:21 14.68062 116.97851 34845 ft 506 kts 187°
2026-05-07 07:22 14.61073 116.96962 34841 ft 506 kts 187°
2026-05-07 07:22 14.54081 116.96074 34838 ft 506 kts 187°
2026-05-07 07:23 14.47091 116.95186 34838 ft 506 kts 187°
2026-05-07 07:23 14.40144 116.94305 34840 ft 506 kts 187°
2026-05-07 07:24 14.33153 116.93418 34836 ft 506 kts 187°
2026-05-07 07:24 14.26152 116.92530 34836 ft 506 kts 187°
2026-05-07 07:25 14.15698 116.91207 34834 ft 506 kts 187°
2026-05-07 07:26 14.08697 116.90324 34833 ft 506 kts 187°
2026-05-07 07:26 14.01699 116.89441 34835 ft 506 kts 187°
2026-05-07 07:27 13.94704 116.88559 34833 ft 506 kts 187°
2026-05-07 07:27 13.87718 116.87678 34833 ft 506 kts 187°
2026-05-07 07:28 13.80736 116.86798 34834 ft 505 kts 187°
2026-05-07 07:28 13.73756 116.85919 34834 ft 505 kts 187°
2026-05-07 07:29 13.66817 116.85046 34833 ft 505 kts 187°
2026-05-07 07:29 13.59828 116.84167 34832 ft 505 kts 187°
2026-05-07 07:30 13.52844 116.83289 34831 ft 505 kts 187°
2026-05-07 07:30 13.45865 116.82413 34829 ft 505 kts 187°
2026-05-07 07:31 13.38884 116.81536 34827 ft 505 kts 188°
2026-05-07 07:31 13.31918 116.80662 34827 ft 504 kts 188°
2026-05-07 07:32 13.24949 116.79788 34828 ft 504 kts 188°
2026-05-07 07:32 13.17978 116.78915 34824 ft 504 kts 188°
2026-05-07 07:33 13.11012 116.78042 34823 ft 504 kts 188°
2026-05-07 07:33 13.04051 116.77171 34820 ft 504 kts 188°
2026-05-07 07:34 12.97137 116.76305 34823 ft 504 kts 188°
2026-05-07 07:34 12.90179 116.75435 34820 ft 504 kts 188°
2026-05-07 07:35 12.83226 116.74566 34820 ft 503 kts 188°
2026-05-07 07:35 12.76272 116.73697 34825 ft 503 kts 188°
2026-05-07 07:36 12.69323 116.72830 34825 ft 503 kts 188°
2026-05-07 07:36 12.62373 116.71963 34819 ft 503 kts 188°
2026-05-07 07:37 12.55428 116.71097 34820 ft 502 kts 188°
2026-05-07 07:37 12.48536 116.70238 34819 ft 502 kts 188°
2026-05-07 07:38 12.41592 116.69373 34818 ft 502 kts 188°
2026-05-07 07:38 12.34664 116.68510 34822 ft 501 kts 188°
2026-05-07 07:39 12.27742 116.67648 34820 ft 501 kts 188°
2026-05-07 07:39 12.20854 116.66791 34818 ft 501 kts 188°
2026-05-07 07:40 12.13934 116.65931 34820 ft 500 kts 188°
2026-05-07 07:40 12.07016 116.65071 34818 ft 500 kts 188°
2026-05-07 07:41 12.00102 116.64213 34819 ft 500 kts 188°
2026-05-07 07:41 11.93190 116.63354 34819 ft 500 kts 188°
2026-05-07 07:42 11.86286 116.62498 34818 ft 500 kts 188°
2026-05-07 07:42 11.79381 116.61641 34816 ft 500 kts 188°
2026-05-07 07:43 11.72475 116.60786 34816 ft 500 kts 188°
2026-05-07 07:43 11.65560 116.59929 34815 ft 500 kts 188°
2026-05-07 07:44 11.58657 116.59074 34817 ft 500 kts 188°
2026-05-07 07:44 11.51746 116.58219 34812 ft 500 kts 188°
2026-05-07 07:45 11.44884 116.57370 34815 ft 500 kts 188°
2026-05-07 07:45 11.37973 116.56515 34813 ft 500 kts 188°
2026-05-07 07:46 11.31067 116.55661 34815 ft 500 kts 188°
2026-05-07 07:46 11.24157 116.54808 34814 ft 500 kts 189°
2026-05-07 07:47 11.17248 116.53954 34813 ft 500 kts 188°
2026-05-07 07:47 11.10335 116.53102 34810 ft 500 kts 188°
2026-05-07 07:48 11.03462 116.52257 34812 ft 500 kts 188°
2026-05-07 07:48 10.96549 116.51406 34807 ft 500 kts 188°
2026-05-07 07:49 10.89631 116.50555 34807 ft 500 kts 188°
2026-05-07 07:49 10.82710 116.49704 34811 ft 500 kts 188°
2026-05-07 07:50 10.75801 116.48854 34810 ft 500 kts 188°
2026-05-07 07:50 10.68885 116.48004 34812 ft 500 kts 188°
2026-05-07 07:51 10.61963 116.47154 34811 ft 500 kts 188°
2026-05-07 07:51 10.55091 116.46311 34810 ft 500 kts 188°
2026-05-07 07:52 10.48172 116.45462 34805 ft 501 kts 188°
2026-05-07 07:52 10.41256 116.44613 34801 ft 501 kts 188°
2026-05-07 07:53 10.34342 116.43766 34804 ft 501 kts 188°
2026-05-07 07:53 10.27418 116.42917 34802 ft 501 kts 188°
2026-05-07 07:54 10.20499 116.42070 34804 ft 501 kts 188°
2026-05-07 07:54 10.13571 116.41221 34804 ft 501 kts 188°
2026-05-07 07:55 10.06682 116.40378 34804 ft 501 kts 188°
2026-05-07 07:55 9.99737 116.39529 34801 ft 501 kts 188°
2026-05-07 07:56 9.92796 116.38680 34802 ft 502 kts 188°
2026-05-07 07:56 9.85907 116.37838 34801 ft 502 kts 188°
2026-05-07 07:57 9.78975 116.36991 34801 ft 502 kts 188°
2026-05-07 07:57 9.72028 116.36143 34802 ft 502 kts 188°
2026-05-07 07:58 9.65086 116.35295 34801 ft 502 kts 188°
2026-05-07 07:58 9.58145 116.34448 34800 ft 503 kts 188°
2026-05-07 07:59 9.51189 116.33599 34808 ft 503 kts 188°
2026-05-07 07:59 9.44238 116.32752 34799 ft 503 kts 188°
2026-05-07 08:00 9.37281 116.31904 34801 ft 504 kts 188°
2026-05-07 08:00 9.30321 116.31056 34799 ft 504 kts 188°
2026-05-07 08:01 9.23359 116.30208 34801 ft 503 kts 188°
2026-05-07 08:01 9.16444 116.29365 34795 ft 503 kts 188°
2026-05-07 08:02 9.09491 116.28516 34801 ft 503 kts 188°
2026-05-07 08:02 9.02530 116.27666 34801 ft 503 kts 187°
2026-05-07 08:03 8.95578 116.26820 34998 ft 502 kts 187°
2026-05-07 08:03 8.92131 116.26401 35595 ft 494 kts 188°
2026-05-07 08:03 8.88736 116.25988 36037 ft 490 kts 188°
2026-05-07 08:03 8.85349 116.25576 36332 ft 490 kts 188°
2026-05-07 08:04 8.83108 116.25302 36491 ft 490 kts 188°
2026-05-07 08:04 8.79721 116.24889 36712 ft 491 kts 188°
2026-05-07 08:04 8.75152 116.24333 36767 ft 495 kts 188°
2026-05-07 08:05 8.69473 116.23642 36791 ft 492 kts 187°
2026-05-07 08:05 8.62761 116.22835 36796 ft 487 kts 186°
2026-05-07 08:06 8.56005 116.22289 36798 ft 486 kts 184°
2026-05-07 08:06 8.49260 116.21839 36797 ft 486 kts 185°
2026-05-07 08:07 8.42511 116.21350 36799 ft 486 kts 185°
2026-05-07 08:07 8.35752 116.20834 36802 ft 487 kts 185°
2026-05-07 08:08 8.29029 116.20318 36798 ft 488 kts 185°
2026-05-07 08:08 8.22233 116.19800 36799 ft 489 kts 185°
2026-05-07 08:09 8.15424 116.19286 36799 ft 490 kts 185°
2026-05-07 08:09 8.08604 116.18800 36798 ft 491 kts 185°
2026-05-07 08:10 8.01830 116.18324 36797 ft 491 kts 185°
2026-05-07 08:10 7.95004 116.17840 36797 ft 491 kts 185°
2026-05-07 08:11 7.88163 116.17353 36798 ft 491 kts 185°
2026-05-07 08:11 7.81380 116.16870 36797 ft 491 kts 185°
2026-05-07 08:12 7.74568 116.16385 36795 ft 491 kts 184°
2026-05-07 08:12 7.67743 116.15899 36794 ft 490 kts 184°
2026-05-07 08:13 7.60933 116.15414 36792 ft 490 kts 184°
2026-05-07 08:13 7.54121 116.14930 36794 ft 490 kts 184°
2026-05-07 08:14 7.47323 116.14447 36795 ft 490 kts 184°
2026-05-07 08:14 7.40568 116.13966 36791 ft 489 kts 184°
2026-05-07 08:15 7.33782 116.13484 36791 ft 489 kts 184°
2026-05-07 08:15 7.26988 116.13002 36789 ft 489 kts 184°
2026-05-07 08:16 7.20205 116.12520 36788 ft 488 kts 184°
2026-05-07 08:16 7.13427 116.12039 36788 ft 488 kts 184°
2026-05-07 08:17 7.06657 116.11558 36792 ft 487 kts 184°
2026-05-07 08:17 6.99929 116.11081 36793 ft 487 kts 183°
2026-05-07 08:18 6.93172 116.10602 36789 ft 486 kts 183°
2026-05-07 08:18 6.86418 116.10123 36789 ft 486 kts 183°
2026-05-07 08:19 6.79676 116.09645 36789 ft 485 kts 183°
2026-05-07 08:19 6.72934 116.09167 36788 ft 485 kts 183°
2026-05-07 08:20 6.66189 116.08696 36787 ft 485 kts 183°
2026-05-07 08:20 6.59455 116.08230 36789 ft 485 kts 183°
2026-05-07 08:21 6.52732 116.07763 36790 ft 484 kts 184°
2026-05-07 08:21 6.46042 116.07298 36787 ft 484 kts 184°
2026-05-07 08:22 6.39313 116.06830 36791 ft 484 kts 184°
2026-05-07 08:22 6.32589 116.06363 36791 ft 484 kts 184°
2026-05-07 08:23 6.25874 116.05897 36792 ft 483 kts 184°
2026-05-07 08:23 6.19201 116.05434 36790 ft 483 kts 184°
2026-05-07 08:24 6.12498 116.04968 36783 ft 482 kts 184°
2026-05-07 08:24 6.05802 116.04503 36776 ft 482 kts 184°
2026-05-07 08:25 5.99112 116.04039 36776 ft 481 kts 184°
2026-05-07 08:25 5.92438 116.03576 36774 ft 481 kts 184°
2026-05-07 08:26 5.82493 116.02422 36777 ft 481 kts 188°
2026-05-07 08:26 5.75877 116.01453 36776 ft 481 kts 188°
2026-05-07 08:27 5.69248 116.00501 36780 ft 481 kts 188°
2026-05-07 08:27 5.62625 115.99570 36782 ft 480 kts 188°
2026-05-07 08:28 5.55993 115.98641 36784 ft 480 kts 188°
2026-05-07 08:28 5.49372 115.97714 36785 ft 480 kts 188°
2026-05-07 08:29 5.42786 115.96790 36784 ft 481 kts 188°
2026-05-07 08:29 5.36152 115.95860 36786 ft 481 kts 188°
2026-05-07 08:30 5.29527 115.94931 36788 ft 480 kts 188°
2026-05-07 08:30 5.22899 115.94003 36789 ft 481 kts 188°
2026-05-07 08:31 5.16253 115.93132 36793 ft 481 kts 187°
2026-05-07 08:31 5.09598 115.92286 36796 ft 481 kts 187°
2026-05-07 08:32 5.02977 115.91434 36797 ft 482 kts 187°
2026-05-07 08:32 4.96311 115.90572 36808 ft 483 kts 187°
2026-05-07 08:33 4.89635 115.89708 36812 ft 483 kts 187°
2026-05-07 08:33 4.82969 115.88823 36830 ft 483 kts 187°
2026-05-07 08:34 4.76336 115.87914 36829 ft 483 kts 187°
2026-05-07 08:34 4.69668 115.87003 36838 ft 484 kts 187°
2026-05-07 08:35 4.62998 115.86096 36847 ft 484 kts 187°
2026-05-07 08:35 4.56329 115.85190 36851 ft 484 kts 187°
2026-05-07 08:36 4.49650 115.84284 36858 ft 483 kts 187°
2026-05-07 08:36 4.42985 115.83379 36864 ft 483 kts 187°
2026-05-07 08:37 4.36352 115.82479 36864 ft 483 kts 187°
2026-05-07 08:37 4.29668 115.81572 36872 ft 483 kts 187°
2026-05-07 08:38 4.22999 115.80667 36864 ft 484 kts 187°
2026-05-07 08:38 4.16317 115.79761 36861 ft 485 kts 187°
2026-05-07 08:39 4.09629 115.78854 36864 ft 485 kts 187°
2026-05-07 08:39 4.02962 115.77718 36865 ft 485 kts 190°
2026-05-07 08:40 3.96374 115.76433 36858 ft 485 kts 191°
2026-05-07 08:40 3.89732 115.75131 36855 ft 485 kts 190°
2026-05-07 08:41 3.83098 115.73853 36849 ft 485 kts 190°
2026-05-07 08:41 3.76457 115.72587 36851 ft 486 kts 190°
2026-05-07 08:42 3.69822 115.71323 36852 ft 486 kts 190°
2026-05-07 08:42 3.63221 115.70066 36848 ft 486 kts 190°
2026-05-07 08:43 3.56575 115.68800 36846 ft 486 kts 190°
2026-05-07 08:43 3.49922 115.67531 36845 ft 487 kts 190°
2026-05-07 08:44 3.43267 115.66263 36852 ft 487 kts 190°
2026-05-07 08:44 3.36603 115.64994 36845 ft 487 kts 190°
2026-05-07 08:45 3.29938 115.63724 36837 ft 487 kts 190°
2026-05-07 08:45 3.23285 115.62457 36838 ft 487 kts 189°
2026-05-07 08:46 3.16626 115.61188 36835 ft 487 kts 190°
2026-05-07 08:46 3.09967 115.59920 36836 ft 486 kts 189°
2026-05-07 08:47 3.03361 115.58662 36828 ft 486 kts 190°
2026-05-07 08:47 2.96718 115.57398 36833 ft 485 kts 190°
2026-05-07 08:48 2.90079 115.56134 36821 ft 485 kts 190°
2026-05-07 08:48 2.83443 115.54871 36826 ft 485 kts 190°
2026-05-07 08:49 2.76807 115.53608 36831 ft 486 kts 190°
2026-05-07 08:49 2.70165 115.52345 36820 ft 486 kts 190°
2026-05-07 08:50 2.63518 115.51080 36816 ft 486 kts 190°
2026-05-07 08:50 2.56870 115.49815 36820 ft 487 kts 190°